world map with VIL marked

VIL - Airport

This information may not be accurate or current and is not valid for navigation or flight planning. No warranty of fitness for any purpose is made or implied.
Donate via PayPal

Additional information is available on the NEW Great Circle Mapper

Location
City:  Villa Cisneros, Western Sahara
Name:Dakhla
ICAO / IATA:GMMH / VIL

Details
Type:Airport (Aerodrome, Airfield)
Use:Public/Civil, Military
Latitude:23°43'06"N (23.718294)
Longitude:15°55'55"W (-15.931993)
Datum:WGS 1984
Elevation:36 ft (11 m)
Runways:1
Longest:9842 × 148 ft (3000 × 45 m)

Time
Timezone:UTC+0
Local Time:

Weather
METAR:GMMH  041400Z 09006KT CAVOK 22/08 Q1016 NOSIG
TAF:GMMH  041100Z 0412/0518 06008KT CAVOK PROB40 0412/0418 3000 DU BECMG 0501/0503 12018KT

Related Locations
Nearby:
Farthest:NWWB: 12266 mi / 19740 km
Bourail Poe, NC

Find:

   beyond  
but within

Other Information
Maps:
Sources:

  


 


Great Circle Mapper   Great Circle Mapper
Great Circle Mapper FAQ   Great Circle Mapper FAQ
  Karl's Home Page
KLSē   KLSē Home
   GC on Facebook
Airlines of the World   Airlines of the World
Donate via PayPal


Copyright © 2004-2019, Karl L. Swartz. All rights reserved.
All trademarks mentioned herein belong to their respective owners.

Please see credits for attribution and copyright information.

Karl Swartz <karl@kls2.com>
  Powered by FreeBSD
Valid HTML 4.01!
Labeled with ICRA
hCard Microformat
Geo Microformat